Lexington Weather

Lexington, Massachusetts, USA

35°F
4/16/2021 9:08am 
  • Lexington Conditions: Light snow, Mist, Overcast
  • Temperature: 34.7°F / 1.5°CColder 4.1°F than last hour.
  • Dew Point: 33.4°FDecreased 4.2°Fsince last hour.
  • Relative Humidity: 95
  • Wind: Wind from N N 1 mph, 10-min avg: 2 mph, gust: 3 mph
  • Barometer: 29.48 inFalling 0.04  inHg/hr Falling Slowly
  • Visibility: 2 miles
  • Snow Today: 0.3 in
  •   

Regional Weather Roundup
for Boston / Norton, MA

        
000
ASUS41 KBOX 121705
RWRBOX

REGIONAL WEATHER ROUNDUP
NATIONAL WEATHER SERVICE BOSTON/NORTON MA
100 PM EDT MON APR 12 2021

NOTE:  "FAIR" INDICATES FEW OR NO CLOUDS BELOW 12,000 FEET WITH NO 
SIGNIFICANT WEATHER AND/OR OBSTRUCTIONS TO VISIBILITY.

MAZALL-121800-
EASTERN MASSACHUSETTS
  
CITY           SKY/WX    TMP DP  RH WIND       PRES   REMARKS
BOSTON         CLOUDY    48  42  80 NE23G32   29.87R                  
BEVERLY        NOT AVBL                                               
LAWRENCE       CLOUDY    49  41  74 NE21G28   29.89R                  
BEDFORD        DRIZZLE   48  43  82 NE20G25   29.85R                  
BLUE HILL        N/A     43  42  97 NE17G28   29.82S                  
NORWOOD        LGT RAIN  47  42  83 E18G26    29.85R                  
MARSHFIELD     PTSUNNY   48  43  81 NE15G24   29.85S                  
PLYMOUTH       CLOUDY    45  41  86 NE17G30   29.82S                  
TAUNTON        CLOUDY    50  39  66 NE12G18   29.82S                  
NEW BEDFORD    CLOUDY    49  40  71 NE15G25   29.80S                  
$$

MAZALL-121800-
CAPE COD AND THE ISLANDS
  
CITY           SKY/WX    TMP DP  RH WIND       PRES   REMARKS
FALMOUTH       PTSUNNY   45  43  93 NE20G28   29.80R                  
HYANNIS        PTSUNNY   50  40  68 NE17G28   29.77S                  
CHATHAM        CLOUDY    48  39  71 NE16G28   29.80F                  
PROVINCETOWN   LGT RAIN  45  43  93 NE21G28     N/A  FOG              
NANTUCKET      CLOUDY    49  41  74 NE21G28   29.77R                  
MARTHAS VNYRD  CLOUDY    50  41  71 NE15G29   29.78S                  
$$
 
MAZALL-121800-
CENTRAL AND WESTERN MASSACHUSETTS
  
CITY           SKY/WX    TMP DP  RH WIND       PRES   REMARKS
WORCESTER      LGT RAIN  48  41  76 NE9G21    29.81S                  
FITCHBURG      LGT RAIN  48  45  89 E10       29.86R FOG              
ORANGE         CLOUDY    51  42  71 NE8G21    29.83S                  
SPRINGFIELD    LGT RAIN  48  45  88 CALM      29.81F                  
WESTFIELD      CLOUDY    49  43  80 NE6       29.82S                  
NORTH ADAMS    CLOUDY    49  45  86 E9G22     29.81S                  
PITTSFIELD     CLOUDY    47  40  76 E9        29.79S                  
$$
 
RIZALL-121800-
RHODE ISLAND
  
CITY           SKY/WX    TMP DP  RH WIND       PRES   REMARKS
PROVIDENCE     CLOUDY    52  41  66 NE23G29   29.81F                  
NEWPORT        CLOUDY    50  40  68 NE18G29   29.79S                  
BLOCK ISLAND   CLOUDY    46  41  82 NE15G22   29.79F                  
SMITHFIELD     CLOUDY    49  42  77 NE15G23   29.82S                  
WESTERLY       CLOUDY    49  41  74 NE14G20   29.78F                  
$$
 
CTZALL-121800-
CONNECTICUT
  
CITY           SKY/WX    TMP DP  RH WIND       PRES   REMARKS
BRADLEY INTL   DRIZZLE   51  42  71 E10       29.81F                  
HARTFORD       CLOUDY    51  41  68 NE13      29.81R                  
BRIDGEPORT     CLOUDY    50  38  63 E7        29.78F                  
DANBURY        CLOUDY    52  37  56 NE7       29.80S                  
GROTON         CLOUDY    52  42  69 NE17G24   29.78S                  
NEW HAVEN      CLOUDY    52  40  63 E9        29.78S                  
CHESTER        CLOUDY    54  41  62 NE10      29.78S                  
MERIDEN        CLOUDY    54  40  59 E10       29.79S                  
WILLIMANTIC    CLOUDY    52  41  66 NE16      29.79F                  
OXFORD         RAIN      47  44  90 CALM      29.79S FOG              
$$

MEZ002-015-021-024-NHZ003-005-008-011-012-014-VTZ005-008-121800-
NORTHERN NEW ENGLAND
  
CITY           SKY/WX    TMP DP  RH WIND       PRES   REMARKS
PORTLAND ME    CLOUDY    48  42  80 E16G23    29.90R                  
BANGOR ME      PTSUNNY   54  37  52 NE14      29.92S                  
CONCORD NH     CLOUDY    53  42  66 E12       29.85S                  
MANCHESTER NH  CLOUDY    52  40  63 E14G20    29.85R                  
NASHUA NH      CLOUDY    50  45  83 E17G24    29.87R                  
PORTSMOUTH NH  CLOUDY    51  39  64 NE23G32   29.89R                  
JAFFREY NH     CLOUDY    48  43  82 MISG      29.84R                  
KEENE NH       CLOUDY    51  43  74 E6        29.84S                  
BURLINGTON VT  PTSUNNY   64  39  39 N6        29.79F                  
MT. WASHINGTON FRZ DRZL  30  30 100 E33G39      N/A  VSB 1/16WCI  14  
$$

NYZ052-076-121800-
EASTERN NEW YORK
  
CITY           SKY/WX    TMP DP  RH WIND       PRES   REMARKS
ALBANY         LGT RAIN  50  41  71 E10       29.82R                  
NEW YORK CITY  LGT RAIN  49  37  63 NE10      29.78S                  
$$
 
ANZALL-121800-
MARINE OBSERVATIONS
  
STATION/POSITION TIME  TEMP    WIND        PRES    VSBY  WAVE
                       AIR SEA DIR/SP/G                  HT/PER
                 (UTC) (F)     (DEG/KT/KT) (MB)    (MI)  (FT/S)
BOSTON BUOY      1650   43 44   50/ 17/ 23 1011.4R         4/ 5
BUZZARDS BAY     1600           30/ 23/ 25 1009.3S
NANTUCKET SOUND  1650      47                N/A           3/ 4
MASS BAY-STELLWA 1604   44      70/ 19/ 25 1009.8R  1 7/8  4/ 5
ISLE OF SHOALS   1600   44      60/ 22/ 25 1010.6S
S OF BLOCK IS    1656      45                N/A           5/ 8
$$

......................KEY.........................
  SKY/WX - SKY CONDITION/PRESENT WEATHER
  TMP    - TEMPERATURE IN FAHRENHEIT
  DWPT   - DEWPOINT IN FAHRENHEIT
  RH     - RELATIVE HUMIDITY IN PERCENT
  WIND   - DIRECTION AND SPEED IN MPH
  PRES   - MEAN SEA LEVEL PRESSURE IN INCHES OF HG
  WCI    - WIND CHILL INDEX
  VSB    - VISIBILITY IN MILES
  HX     - HEAT INDEX
  TC     - TEMPERATURE IN CELSIUS
  VRB    - VARIABLE WIND DIRECTION
  N/A    - NOT AVAILABLE
  
      

Other recent Regional Weather Roundups

Fri Apr 16, 9:04am

Fri Apr 16, 8:04am

Fri Apr 16, 7:04am

Fri Apr 16, 6:04am

Fri Apr 16, 5:04am

Fri Apr 16, 4:04am

Fri Apr 16, 3:04am

Fri Apr 16, 2:04am

Fri Apr 16, 1:04am

Fri Apr 16, 12:04am

Thu Apr 15, 11:05pm

Thu Apr 15, 10:04pm

Thu Apr 15, 9:04pm

Thu Apr 15, 8:04pm

Thu Apr 15, 7:05pm

Thu Apr 15, 6:04pm

Thu Apr 15, 5:05pm

Thu Apr 15, 4:04pm

Thu Apr 15, 3:05pm

Thu Apr 15, 2:04pm

Thu Apr 15, 1:05pm

Thu Apr 15, 12:04pm

Thu Apr 15, 11:04am

Thu Apr 15, 10:05am

Thu Apr 15, 9:04am

Thu Apr 15, 8:04am

Thu Apr 15, 7:04am

Thu Apr 15, 6:04am

Thu Apr 15, 5:04am

Thu Apr 15, 4:04am

Thu Apr 15, 3:04am

Thu Apr 15, 2:04am

Thu Apr 15, 1:04am

Thu Apr 15, 12:04am

Wed Apr 14, 11:04pm

Wed Apr 14, 10:04pm

Wed Apr 14, 9:04pm

Wed Apr 14, 8:04pm

Wed Apr 14, 7:04pm

Wed Apr 14, 6:04pm

Wed Apr 14, 5:05pm

Wed Apr 14, 4:04pm

Wed Apr 14, 3:05pm

Wed Apr 14, 2:04pm

Wed Apr 14, 1:05pm

Wed Apr 14, 12:04pm

Wed Apr 14, 11:04am

Wed Apr 14, 10:04am

Wed Apr 14, 9:04am

Wed Apr 14, 8:04am

Wed Apr 14, 7:04am

Wed Apr 14, 6:04am

Wed Apr 14, 5:04am

Wed Apr 14, 4:04am

Wed Apr 14, 3:04am

Wed Apr 14, 2:04am

Wed Apr 14, 1:04am

Wed Apr 14, 12:04am

Tue Apr 13, 11:04pm

Tue Apr 13, 10:05pm

Tue Apr 13, 9:05pm

Tue Apr 13, 8:05pm

Tue Apr 13, 7:04pm

Tue Apr 13, 6:04pm

Tue Apr 13, 5:05pm

Tue Apr 13, 4:04pm

Tue Apr 13, 3:04pm

Tue Apr 13, 2:05pm

Tue Apr 13, 1:04pm

Tue Apr 13, 12:05pm

Tue Apr 13, 11:05am

Tue Apr 13, 10:04am

Tue Apr 13, 9:04am

Tue Apr 13, 8:04am

Tue Apr 13, 7:04am

Tue Apr 13, 6:04am

Tue Apr 13, 5:04am

Tue Apr 13, 4:04am

Tue Apr 13, 3:04am

Tue Apr 13, 2:04am

Tue Apr 13, 1:04am

Tue Apr 13, 12:05am

Mon Apr 12, 11:04pm

Mon Apr 12, 10:04pm

Mon Apr 12, 9:04pm

Mon Apr 12, 8:04pm

Mon Apr 12, 7:05pm

Mon Apr 12, 6:04pm

Mon Apr 12, 5:04pm

Mon Apr 12, 4:04pm

Mon Apr 12, 3:05pm

Mon Apr 12, 2:04pm

Mon Apr 12, 12:04pm

Mon Apr 12, 11:04am

Mon Apr 12, 10:04am

Mon Apr 12, 9:04am

Mon Apr 12, 8:04am

Mon Apr 12, 7:04am

Mon Apr 12, 6:04am

Mon Apr 12, 5:04am

Mon Apr 12, 4:04am

Mon Apr 12, 3:04am

Mon Apr 12, 2:04am

Mon Apr 12, 1:05am

Mon Apr 12, 12:04am

Sun Apr 11, 11:04pm

Sun Apr 11, 10:04pm

Sun Apr 11, 9:04pm

Sun Apr 11, 8:04pm

Sun Apr 11, 7:04pm

Sun Apr 11, 6:05pm

Sun Apr 11, 5:05pm

Sun Apr 11, 4:04pm

Sun Apr 11, 3:05pm

Sun Apr 11, 2:05pm

Sun Apr 11, 1:05pm

Sun Apr 11, 12:04pm

Sun Apr 11, 11:05am

Sun Apr 11, 10:05am

Sun Apr 11, 9:04am

Sun Apr 11, 8:04am

Sun Apr 11, 7:04am

Sun Apr 11, 6:04am

Sun Apr 11, 5:04am

Sun Apr 11, 4:04am

Sun Apr 11, 3:04am

Sun Apr 11, 2:04am

Sun Apr 11, 1:05am

Sun Apr 11, 12:04am

Sat Apr 10, 11:05pm

Sat Apr 10, 10:04pm

Sat Apr 10, 9:04pm

Sat Apr 10, 8:04pm

Sat Apr 10, 7:05pm

Sat Apr 10, 6:04pm

Sat Apr 10, 5:04pm

Sat Apr 10, 4:04pm

Sat Apr 10, 3:04pm

Sat Apr 10, 2:05pm

Sat Apr 10, 1:04pm

Sat Apr 10, 12:04pm

Sat Apr 10, 11:04am

Sat Apr 10, 10:04am

Sat Apr 10, 9:04am

Sat Apr 10, 8:04am

Sat Apr 10, 7:04am

Sat Apr 10, 6:04am

Sat Apr 10, 5:04am

Sat Apr 10, 4:04am

Sat Apr 10, 3:04am

Sat Apr 10, 2:04am

Sat Apr 10, 1:05am

Sat Apr 10, 12:04am

Fri Apr 9, 11:04pm

Fri Apr 9, 10:05pm

Fri Apr 9, 9:04pm

Fri Apr 9, 8:05pm

Fri Apr 9, 7:05pm

Fri Apr 9, 6:04pm

Fri Apr 9, 5:04pm

Fri Apr 9, 4:05pm

Fri Apr 9, 3:05pm

Fri Apr 9, 2:04pm

Fri Apr 9, 1:04pm

Fri Apr 9, 12:04pm

Fri Apr 9, 11:05am

Fri Apr 9, 10:04am

Fri Apr 9, 9:04am

Meta data:

ID: 4d81c637-7b7f-43a2-946d-3c1e53a337e2
Link: https://api.weather.gov/products/4d81c637-7b7f-43a2-946d-3c1e53a337e2